Location: Holyhead Bay
(53.3667°N, 4.6667°W)
Time: 19:05:21
(UTC+00:00)

SL-24 R/B - Pass Details

Date: 24 November 2020
Orbit: 504 x 1003 km, 97.4° (Epoch: 16 January)

Event Time Altitude Azimuth Distance (km) Brightness Sun altitude
Exits shadow 19:12:50 56° 256° (WSW) 691 4.5 -26.5°
Drops below altitude 10° 19:16:11 10° 209° (SSW) 1,806 6.8 -27.0°
Sets 19:18:12 0° 206° (SSW) 2,654 7.6 -27.3°
